[[{"header":{"parameterUnit":"m.s-1","parameterCategory":2,"la1":30.2991,"la2":30.254,"lo1":-89.0895,"lo2":-89.0444,"dy":0.0017,"dx":0.0017,"nx":28,"ny":28,"refTime":"2024-10-21T09:00:00:Z","depth":"0","parameterNumber":2,"parameterNumberName":"U-component_of_CURRENTS"},"data":[0,0,0,0,0,0,0,0,0,0,0,0,0,0,0,0,0,0,0,0,0,0,0,0,0,0,0,0,0,0,0,0,0,0,0,0,0,0,0,0,0,0,0,0,0,0,0,0,0,0,0,0,0,0,0,0,0,0,0.3477,0.3478,0,0.3524,0.3524,0.3524,0.3517,0.3517,0.3516,0.3516,0.3521,0.3522,0.3522,0,0,0,0,0,0,0,0,0,0,0,0,0,0.3425,0.3425,0.3477,0.3478,0.3479,0.3523,0.3524,0.3524,0.3517,0.3517,0.3516,0.3516,0.3521,0.3522,0.3522,0,0,0,0,0,0,0,0,0,0,0,0,0,0.3453,0.3425,0.3477,0.3484,0.3486,0.3523,0.3524,0.3524,0.3517,0.3517,0.3516,0.3515,0.3521,0.3522,0.3522,0.3539,0,0,0.3525,0.3525,0,0,0,0,0,0,0,0,0.3451,0.3454,0.3482,0.3484,0.3485,0.3518,0.3508,0.3528,0.3517,0.3501,0.3516,0.3515,0.352,0.352,0.3525,0.3539,0.3539,0.3525,0.3525,0.3526,0.3526,0,0,0,0,0,0,0,0.3449,0.3452,0.3491,0.3483,0.3485,0.35,0.3502,0.3511,0.3509,0.3502,0.3503,0.3515,0.3519,0.3524,0.3525,0.3539,0.3525,0.3525,0.3526,0.3526,0.3576,0.3576,0,0,0,0,0,0,0.345,0.345,0.349,0.3493,0.3471,0.3501,0.3504,0.3504,0.3509,0.3511,0.3515,0.3514,0.3523,0.3524,0.3525,0.3561,0.3526,0.3526,0.3527,0.3575,0.3576,0.3577,0,0,0,0,0,0,0.3449,0.3453,0.3488,0.3477,0.3483,0.3503,0.3504,0.3506,0.3513,0.3521,0.3521,0.3521,0.3523,0.3524,0.3541,0.356,0.3527,0.3527,0.3574,0.3575,0.3576,0.3622,0,0,0,0,0,0,0.3447,0.3452,0.3449,0.3476,0.3484,0.3513,0.3505,0.3507,0.3524,0.3523,0.3526,0.3526,0.3522,0.354,0.3542,0.356,0.3528,0.3573,0.3574,0.3576,0.3619,0.3624,0.3629,0,0,0,0,0,0.3445,0.344,0.3448,0.3454,0.348,0.3514,0.3519,0.3529,0.3524,0.3531,0.3537,0.3526,0.3551,0.3542,0.3544,0.3563,0.3572,0.3574,0.3576,0.3617,0.3623,0.3629,0,0,0,0,0,0,0.3407,0.3441,0.345,0.3453,0.3486,0.3515,0.3521,0.3533,0.3543,0.3541,0.354,0.3541,0.3564,0.3557,0.3546,0.3581,0.3559,0.3561,0.3589,0.3595,0.36,0.3624,0.3529,0,0,0,0,0,0.3402,0.3411,0.345,0.3454,0.3469,0.3497,0.3511,0.3526,0.3543,0.3547,0.355,0.3556,0.3574,0.3579,0.3588,0.3608,0.3633,0.362,0.3625,0.3629,0.365,0.3715,0.3728,0.3583,0.3583,0.3583,0,0,0.3387,0.341,0.3413,0.3448,0.3469,0.3499,0.3502,0.3529,0.3557,0.3546,0.3568,0.3575,0.3584,0.3608,0.3617,0.3604,0.368,0.3631,0.3635,0.3654,0.3719,0.3733,0.3746,0.3584,0.3584,0.3584,0,0,0.3377,0.3385,0.3397,0.343,0.3476,0.3498,0.3509,0.3544,0.356,0.359,0.3593,0.3617,0.3626,0.3648,0.3659,0.3698,0.3707,0.3689,0.3733,0.3796,0.3809,0.3821,0.386,0.3876,0.3689,0.3689,0.3689,0,0.336,0.3382,0.3407,0.3438,0.3468,0.3499,0.3531,0.3556,0.3592,0.3622,0.3599,0.3656,0.3652,0.3714,0.3721,0.3711,0.3741,0.3709,0.3805,0.3817,0.3828,0.3866,0.3882,0.3692,0.3691,0.3691,0.3691,0,0.3371,0.3393,0.3404,0.3455,0.3488,0.3519,0.357,0.3599,0.3617,0.3653,0.3712,0.3718,0.3758,0.3754,0.3747,0.3828,0.382,0.3807,0.3793,0.3846,0.3882,0.3898,0.3695,0.3694,0.3693,0.3693,0,0,0.3328,0.3398,0.3403,0.3433,0.3504,0.353,0.3588,0.3658,0.3709,0.3736,0.3808,0.3831,0.3849,0.3863,0.3863,0.3907,0.3997,0.3891,0.3893,0.3937,0.4131,0.4088,0.4101,0.4005,0.4008,0.4011,0.412,0,0.3333,0.3386,0.3426,0.3477,0.3511,0.3569,0.3624,0.3694,0.3749,0.3823,0.3864,0.3921,0.3888,0.3913,0.3957,0.4,0.4044,0.3968,0.4068,0.4071,0.4033,0.412,0.4024,0.411,0.4136,0.4138,0.414,0,0.3334,0.3376,0.3422,0.3504,0.3524,0.3557,0.3662,0.3717,0.3839,0.3893,0.3973,0.4011,0.4098,0.4047,0.4163,0.412,0.4133,0.4149,0.4154,0.4115,0.4059,0.4063,0.4139,0.4021,0.4165,0.4163,0.4161,0,0.3296,0.3371,0.3405,0.3432,0.3528,0.3561,0.3613,0.3732,0.3816,0.3944,0.4024,0.4123,0.4187,0.4237,0.4274,0.4232,0.4394,0.4337,0.431,0.4305,0.4245,0.423,0.4227,0.4418,0.4418,0.4417,0.4417,0,0.3289,0.3317,0.3382,0.3402,0.3465,0.3531,0.3623,0.3703,0.3848,0.3953,0.405,0.4156,0.4241,0.4337,0.434,0.4395,0.4453,0.435,0.4349,0.4254,0.4239,0.4149,0.4102,0.4421,0.442,0.442,0.4419,0,0.3247,0.3288,0.333,0.3412,0.3447,0.3483,0.3634,0.3702,0.3843,0.3987,0.4037,0.4227,0.4347,0.442,0.4519,0.4484,0.4411,0.452,0.4394,0.4375,0.42,0.416,0.4024,0.389,0.4509,0.4509,0.4509,0,0.3235,0.3249,0.3324,0.3357,0.3392,0.3473,0.3535,0.3685,0.3767,0.4016,0.4072,0.4265,0.4404,0.456,0.4543,0.4579,0.4413,0.4466,0.4358,0.4209,0.4165,0.397,0.3852,0.4292,0.429,0.4288,0.4287,0,0.3226,0.3238,0.328,0.3343,0.339,0.3459,0.355,0.3632,0.3795,0.3932,0.4125,0.4274,0.445,0.4476,0.4525,0.4517,0.4262,0.4431,0.4328,0.405,0.3792,0.3655,0.4184,0.4273,0.4275,0.4276,0.4276,0.4277,0.3224,0.3245,0.3294,0.3344,0.3391,0.343,0.3463,0.3564,0.3699,0.3853,0.4048,0.4185,0.433,0.4414,0.4376,0.4225,0.4162,0.4094,0.4076,0.3904,0.3711,0.4199,0.4249,0.425,0.4251,0.4252,0.4253,0,0.3246,0.327,0.3306,0.3345,0.3348,0.3392,0.3461,0.3462,0.3548,0.3705,0.3857,0.398,0.4057,0.4103,0.4058,0.3899,0.3694,0.3784,0.3502,0.3416,0.392,0.3846,0.3751,0.3751,0.3751,0.3751,0.3751,0.3752,0.3266,0.3299,0.3299,0.3297,0.3306,0.3269,0.3281,0.3283,0.3354,0.3416,0.3455,0.3558,0.378,0.3896,0.3759,0.3657,0.3328,0.3215,0.3136,0.3533,0.3559,0.3583,0.3501,0.3335,0.3335,0.249,0.2484,0.2479]},{"header":{"parameterUnit":"m.s-1","parameterCategory":2,"la1":30.2991,"la2":30.254,"lo1":-89.0895,"lo2":-89.0444,"dy":0.0017,"dx":0.0017,"nx":28,"ny":28,"refTime":"2024-10-21T09:00:00:Z","depth":"0","parameterNumber":3,"parameterNumberName":"V-component_of_CURRENTS"},"data":[0,0,0,0,0,0,0,0,0,0,0,0,0,0,0,0,0,0,0,0,0,0,0,0,0,0,0,0,0,0,0,0,0,0,0,0,0,0,0,0,0,0,0,0,0,0,0,0,0,0,0,0,0,0,0,0,0,0,-0.0286,-0.0286,0,-0.0319,-0.0319,-0.0319,-0.0354,-0.0354,-0.0355,-0.0355,-0.0424,-0.0426,-0.0427,0,0,0,0,0,0,0,0,0,0,0,0,0,-0.0273,-0.0273,-0.0286,-0.0286,-0.0287,-0.0319,-0.0319,-0.032,-0.0354,-0.0354,-0.0355,-0.0356,-0.0424,-0.0425,-0.0427,0,0,0,0,0,0,0,0,0,0,0,0,0,-0.0289,-0.0273,-0.0286,-0.0308,-0.031,-0.0319,-0.0319,-0.032,-0.0354,-0.0354,-0.0355,-0.0356,-0.0423,-0.0425,-0.0427,-0.0424,0,0,-0.0433,-0.0434,0,0,0,0,0,0,0,0,-0.0288,-0.0289,-0.0304,-0.0306,-0.0309,-0.0333,-0.034,-0.0357,-0.0353,-0.0337,-0.0355,-0.0356,-0.0397,-0.0401,-0.0404,-0.0427,-0.043,-0.0434,-0.0435,-0.0436,-0.0436,0,0,0,0,0,0,0,-0.0287,-0.0288,-0.0298,-0.0305,-0.0308,-0.0324,-0.0326,-0.0343,-0.0362,-0.0338,-0.0341,-0.0345,-0.0399,-0.0402,-0.0406,-0.0431,-0.0434,-0.0435,-0.0437,-0.0437,-0.0457,-0.0456,0,0,0,0,0,0,-0.0282,-0.0287,-0.0297,-0.0299,-0.0301,-0.0323,-0.0326,-0.0324,-0.0361,-0.0368,-0.0344,-0.0347,-0.0398,-0.0404,-0.0409,-0.0398,-0.0436,-0.0438,-0.0439,-0.0458,-0.0457,-0.0456,0,0,0,0,0,0,-0.0281,-0.0282,-0.0296,-0.0295,-0.0298,-0.0322,-0.032,-0.0325,-0.033,-0.0366,-0.0373,-0.0346,-0.0399,-0.0406,-0.0421,-0.0401,-0.0439,-0.044,-0.0459,-0.0458,-0.0457,-0.0382,0,0,0,0,0,0,-0.0281,-0.0282,-0.0274,-0.0294,-0.0298,-0.0287,-0.0319,-0.0325,-0.0332,-0.0335,-0.0369,-0.0376,-0.04,-0.0418,-0.0423,-0.0405,-0.0442,-0.046,-0.0458,-0.0457,-0.0385,-0.0379,-0.0373,0,0,0,0,0,-0.028,-0.0256,-0.0274,-0.0275,-0.0288,-0.0286,-0.0288,-0.0309,-0.0331,-0.032,-0.0351,-0.0375,-0.0413,-0.0419,-0.0425,-0.0407,-0.046,-0.0459,-0.0457,-0.0388,-0.038,-0.0373,0,0,0,0,0,0,-0.0236,-0.0258,-0.0278,-0.0259,-0.0271,-0.0292,-0.0282,-0.0305,-0.032,-0.0327,-0.0368,-0.0376,-0.0383,-0.0405,-0.041,-0.041,-0.044,-0.0439,-0.0385,-0.0378,-0.0372,-0.0356,-0.0444,0,0,0,0,0,-0.0227,-0.0221,-0.0244,-0.0229,-0.0233,-0.0261,-0.0264,-0.0279,-0.0298,-0.0306,-0.0333,-0.0361,-0.038,-0.0387,-0.0408,-0.0405,-0.0428,-0.0398,-0.0392,-0.0386,-0.0378,-0.0409,-0.0405,-0.0451,-0.0451,-0.0451,0,0,-0.0207,-0.0218,-0.0215,-0.0221,-0.0234,-0.022,-0.0264,-0.0259,-0.0251,-0.0311,-0.0306,-0.0341,-0.0376,-0.0374,-0.0379,-0.0391,-0.038,-0.0384,-0.0379,-0.0374,-0.0407,-0.0403,-0.0399,-0.045,-0.045,-0.045,0,0,-0.0157,-0.0174,-0.0152,-0.0156,-0.017,-0.0185,-0.0183,-0.0203,-0.0215,-0.0219,-0.0261,-0.0285,-0.0309,-0.0329,-0.0344,-0.0315,-0.0349,-0.032,-0.0271,-0.0301,-0.0297,-0.0295,-0.0295,-0.0293,-0.0313,-0.0313,-0.0312,0,-0.0133,-0.0111,-0.0142,-0.012,-0.0118,-0.0165,-0.0138,-0.0149,-0.0173,-0.0177,-0.0206,-0.0251,-0.0286,-0.0288,-0.0281,-0.03,-0.0315,-0.0296,-0.0292,-0.029,-0.0289,-0.029,-0.0289,-0.0309,-0.0309,-0.031,-0.031,0,-0.0068,-0.0052,-0.0036,-0.0031,-0.0029,-0.0013,-0.0037,-0.0037,-0.0067,-0.0088,-0.0105,-0.0159,-0.0185,-0.0201,-0.0234,-0.0234,-0.0246,-0.0284,-0.0309,-0.0279,-0.0283,-0.0283,-0.0303,-0.0305,-0.0306,-0.0307,0,0,-0.0013,0.0005,0.0011,0.0029,0.0017,0.0031,0.0044,0.0044,0.0064,0.0014,0.0031,-0.0029,-0.0072,-0.0092,-0.0141,-0.0171,-0.0175,-0.0216,-0.022,-0.0212,-0.0217,-0.021,-0.021,-0.0215,-0.0215,-0.0215,-0.0215,0,0.0045,0.0108,0.0095,0.0151,0.0178,0.0144,0.0162,0.0153,0.0137,0.0144,0.0068,0.0059,-0.0026,-0.0036,-0.0081,-0.0143,-0.0175,-0.0169,-0.0252,-0.0253,-0.0248,-0.021,-0.0176,-0.0172,-0.0216,-0.0216,-0.0216,0,0.011,0.0143,0.0207,0.0239,0.0248,0.0269,0.0294,0.031,0.0296,0.0281,0.0245,0.0187,0.0142,0.0057,-0.0042,-0.0033,-0.012,-0.0182,-0.0184,-0.0205,-0.0247,-0.0215,-0.0171,-0.0365,-0.0216,-0.0216,-0.0216,0,0.0167,0.0222,0.0275,0.0286,0.0314,0.0333,0.0347,0.0349,0.0393,0.0372,0.0399,0.031,0.0299,0.0165,0.0035,-0.0005,-0.0066,-0.0139,-0.0215,-0.0215,-0.0215,-0.0214,-0.0365,-0.0223,-0.0223,-0.0223,-0.0223,0,0.023,0.0275,0.0307,0.0338,0.0415,0.0398,0.0479,0.0481,0.0513,0.0596,0.0474,0.0528,0.0322,0.026,0.0098,-0.0028,-0.0019,-0.0191,-0.0215,-0.0185,-0.0182,-0.0375,-0.0494,-0.0223,-0.0223,-0.0223,-0.0223,0,0.0283,0.03,0.0375,0.042,0.0446,0.05,0.0588,0.0654,0.0654,0.0765,0.0765,0.0715,0.0643,0.0446,0.0269,0.009,-0.0159,-0.0118,-0.0051,-0.0068,-0.0347,-0.0461,-0.0629,-0.0702,-0.0209,-0.0209,-0.0208,0,0.0317,0.036,0.0451,0.0519,0.0545,0.0628,0.0699,0.0728,0.0821,0.0905,0.098,0.0934,0.0977,0.0721,0.0384,0.0118,-0.0101,-0.0071,-0.0165,-0.0342,-0.0488,-0.0581,-0.0638,-0.0126,-0.0125,-0.0124,-0.0124,0,0.0395,0.0424,0.0496,0.0633,0.0722,0.0834,0.0941,0.1041,0.1104,0.1222,0.1386,0.1432,0.1178,0.0941,0.0521,0.0304,-0.02,-0.0067,-0.0277,-0.0452,-0.0535,-0.0622,-0.0133,-0.0118,-0.0118,-0.0119,-0.0119,-0.0119,0.0469,0.054,0.0645,0.077,0.0886,0.1038,0.1149,0.1301,0.1498,0.1705,0.1721,0.1846,0.1412,0.0869,0.053,-0.0119,-0.0152,-0.0329,-0.0452,-0.0528,-0.0613,-0.0093,-0.0098,-0.0099,-0.0099,-0.01,-0.01,0,0.0575,0.0658,0.0783,0.094,0.1076,0.1111,0.1316,0.145,0.1719,0.1953,0.2135,0.2019,0.15,0.0894,0.0018,-0.0429,-0.0606,-0.0681,-0.0825,-0.0865,-0.0418,-0.0429,-0.0473,-0.0473,-0.0472,-0.0472,-0.0472,-0.0472,0.0646,0.0781,0.0833,0.1071,0.1184,0.1374,0.1496,0.1722,0.1926,0.225,0.2363,0.2405,0.1922,0.0415,-0.0592,-0.0817,-0.115,-0.122,-0.1384,-0.1112,-0.109,-0.1068,-0.1108,-0.1293,-0.1294,-0.1761,-0.1766,-0.177]}],[{"header":{"parameterUnit":"m.s-1","parameterCategory":2,"la1":30.2991,"la2":30.254,"lo1":-89.0895,"lo2":-89.0444,"dy":0.0017,"dx":0.0017,"nx":28,"ny":28,"refTime":"2024-10-21T09:00:00:Z","depth":"2","parameterNumber":2,"parameterNumberName":"U-component_of_CURRENTS"},"data":[0,0,0,0,0,0,0,0,0,0,0,0,0,0,0,0,0,0,0,0,0,0,0,0,0,0,0,0,0,0,0,0,0,0,0,0,0,0,0,0,0,0,0,0,0,0,0,0,0,0,0,0,0,0,0,0,0,0,0.2793,0.2793,0,0.2858,0.2859,0.2859,0.2881,0.288,0.288,0.288,0.2906,0.2907,0.2908,0,0,0,0,0,0,0,0,0,0,0,0,0,0.2704,0.2705,0.2792,0.2793,0.2795,0.2858,0.2859,0.2859,0.2881,0.288,0.288,0.288,0.2906,0.2907,0.2908,0,0,0,0,0,0,0,0,0,0,0,0,0,0.2751,0.2705,0.2792,0.2815,0.2817,0.2858,0.2859,0.286,0.2881,0.288,0.288,0.288,0.2906,0.2907,0.2908,0.2917,0,0,0.2911,0.2912,0,0,0,0,0,0,0,0,0.2748,0.2754,0.281,0.2813,0.2816,0.2863,0.2837,0.2878,0.2881,0.2854,0.288,0.288,0.289,0.2892,0.2902,0.2918,0.2919,0.2911,0.2912,0.2913,0.2913,0,0,0,0,0,0,0,0.2745,0.2751,0.2816,0.2811,0.2815,0.2828,0.2834,0.2845,0.2869,0.2856,0.2859,0.287,0.2891,0.2901,0.2903,0.2919,0.2911,0.2912,0.2913,0.2914,0.2997,0.2998,0,0,0,0,0,0,0.2741,0.2748,0.2814,0.2818,0.2784,0.283,0.2836,0.2846,0.287,0.2874,0.287,0.2871,0.2899,0.2901,0.2903,0.2959,0.2913,0.2914,0.2914,0.2995,0.2997,0.2999,0,0,0,0,0,0,0.2739,0.2746,0.2811,0.2787,0.2796,0.2832,0.2842,0.2848,0.2871,0.2881,0.2884,0.2889,0.2899,0.2902,0.2932,0.2958,0.2914,0.2915,0.2993,0.2996,0.2998,0.3041,0,0,0,0,0,0,0.2736,0.2745,0.2755,0.2786,0.2797,0.2845,0.2843,0.2849,0.2878,0.288,0.2898,0.29,0.2899,0.2931,0.2933,0.2959,0.2916,0.2991,0.2994,0.2997,0.3038,0.3045,0.305,0,0,0,0,0,0.2733,0.2745,0.2755,0.2764,0.2809,0.2846,0.2853,0.2876,0.2879,0.2894,0.2911,0.29,0.2951,0.2933,0.2936,0.2962,0.299,0.2993,0.2997,0.3035,0.3043,0.305,0,0,0,0,0,0,0.2709,0.275,0.2761,0.2785,0.2818,0.2851,0.2869,0.2884,0.291,0.2914,0.2918,0.2921,0.296,0.2957,0.2937,0.2996,0.2969,0.2974,0.2998,0.3005,0.3012,0.3019,0.2917,0,0,0,0,0,0.271,0.2732,0.277,0.2791,0.2808,0.2841,0.2861,0.288,0.2906,0.2918,0.2932,0.295,0.2976,0.2986,0.3005,0.3033,0.3048,0.3053,0.3059,0.3065,0.3074,0.3126,0.3138,0.301,0.301,0.301,0,0,0.2705,0.2732,0.2744,0.2788,0.2814,0.2846,0.2852,0.2889,0.2918,0.2916,0.2957,0.2975,0.299,0.3027,0.3044,0.3027,0.311,0.3069,0.3073,0.308,0.3131,0.3143,0.3154,0.3012,0.3012,0.3011,0,0,0.2708,0.2733,0.2754,0.2785,0.2834,0.2858,0.2872,0.2915,0.2937,0.2978,0.2991,0.3027,0.3054,0.3078,0.3091,0.3144,0.3146,0.3149,0.3183,0.3233,0.3244,0.3253,0.3292,0.3305,0.3148,0.3148,0.3148,0,0.2702,0.2734,0.2766,0.2798,0.2826,0.2864,0.2895,0.2926,0.2974,0.3003,0.2996,0.3072,0.3081,0.3139,0.3159,0.3158,0.3184,0.315,0.3241,0.3251,0.326,0.3297,0.3311,0.315,0.315,0.315,0.315,0,0.2721,0.2752,0.2769,0.282,0.2856,0.2889,0.2939,0.2977,0.3007,0.3041,0.3109,0.3132,0.3179,0.3189,0.3188,0.3263,0.326,0.3246,0.322,0.3276,0.3311,0.3324,0.3154,0.3153,0.3152,0.3152,0,0,0.269,0.2765,0.2772,0.2798,0.2872,0.2898,0.2959,0.3024,0.3071,0.3117,0.318,0.3228,0.3252,0.3269,0.3282,0.3321,0.3405,0.3314,0.3315,0.3348,0.3518,0.3475,0.3485,0.341,0.3413,0.3415,0.3517,0,0.2694,0.2745,0.279,0.2841,0.2871,0.2932,0.2985,0.3052,0.3112,0.3182,0.3229,0.3292,0.328,0.3313,0.3354,0.3401,0.3442,0.3378,0.3462,0.3464,0.3416,0.35,0.3228,0.3293,0.353,0.3532,0.3534,0,0.2695,0.2732,0.278,0.2854,0.2874,0.2914,0.3011,0.3066,0.3177,0.3233,0.3312,0.3353,0.3437,0.3408,0.3518,0.3482,0.3508,0.353,0.3534,0.3488,0.3446,0.3276,0.3308,0.3556,0.3554,0.3552,0.3551,0,0.2649,0.2722,0.2757,0.2783,0.2875,0.2914,0.2968,0.308,0.3149,0.3276,0.3342,0.3438,0.3504,0.3555,0.3611,0.3576,0.3724,0.3675,0.3659,0.3656,0.3437,0.3411,0.375,0.375,0.375,0.375,0.3749,0,0.2632,0.266,0.2736,0.2756,0.2809,0.2884,0.2965,0.3045,0.3176,0.326,0.3362,0.3447,0.3547,0.3637,0.3657,0.3717,0.3767,0.369,0.3691,0.3445,0.342,0.365,0.3637,0.3753,0.3753,0.3752,0.3751,0,0.258,0.2631,0.2673,0.276,0.279,0.2828,0.296,0.302,0.3155,0.3272,0.3319,0.3493,0.3612,0.3697,0.3805,0.3783,0.3834,0.3835,0.3543,0.3507,0.3714,0.3702,0.3822,0.3822,0.3822,0.3821,0.3821,0,0.2558,0.257,0.2658,0.2688,0.273,0.2803,0.2856,0.2997,0.3072,0.3284,0.3329,0.3508,0.3609,0.3771,0.3782,0.3833,0.3868,0.3586,0.3463,0.3739,0.3728,0.3716,0.3705,0.3189,0.3184,0.3179,0.3176,0,0.2518,0.2549,0.2592,0.2648,0.2698,0.275,0.2836,0.289,0.305,0.3151,0.3296,0.3401,0.3583,0.3538,0.363,0.3605,0.3555,0.3499,0.388,0.3219,0.3152,0.3138,0.3145,0.3136,0.314,0.3143,0.3145,0.3147,0.2494,0.2504,0.2563,0.2607,0.2652,0.2675,0.2678,0.2769,0.2853,0.2958,0.3148,0.3211,0.3307,0.332,0.3246,0.3186,0.3417,0.3243,0.3252,0.3267,0.3182,0.3118,0.308,0.3083,0.3086,0.3089,0.3091,0,0.2448,0.248,0.2517,0.2544,0.2524,0.2602,0.2642,0.2607,0.2623,0.277,0.2871,0.2734,0.2757,0.2833,0.2703,0.2726,0.2648,0.2595,0.2458,0.2503,0.2542,0.2412,0.211,0.2106,0.2103,0.2099,0,0,0.2435,0.2447,0.2454,0.2411,0.2421,0.2361,0.2354,0.2319,0.2368,0.2359,0.2387,0.2646,0.2782,0.2407,0.2379,0.2216,0.2324,0.2129,0.2931,0.2816,0.2849,0.2951,0.281,0,0,0,0,0]},{"header":{"parameterUnit":"m.s-1","parameterCategory":2,"la1":30.2991,"la2":30.254,"lo1":-89.0895,"lo2":-89.0444,"dy":0.0017,"dx":0.0017,"nx":28,"ny":28,"refTime":"2024-10-21T09:00:00:Z","depth":"2","parameterNumber":3,"parameterNumberName":"V-component_of_CURRENTS"},"data":[0,0,0,0,0,0,0,0,0,0,0,0,0,0,0,0,0,0,0,0,0,0,0,0,0,0,0,0,0,0,0,0,0,0,0,0,0,0,0,0,0,0,0,0,0,0,0,0,0,0,0,0,0,0,0,0,0,0,0.0082,0.0081,0,0.0027,0.0027,0.0026,-0.002,-0.002,-0.0021,-0.0021,-0.0082,-0.0083,-0.0085,0,0,0,0,0,0,0,0,0,0,0,0,0,0.0119,0.0118,0.0082,0.0081,0.0081,0.0027,0.0026,0.0026,-0.0019,-0.002,-0.0021,-0.0021,-0.0082,-0.0083,-0.0085,0,0,0,0,0,0,0,0,0,0,0,0,0,0.0087,0.0118,0.0082,0.0052,0.0048,0.0027,0.0026,0.0026,-0.0019,-0.002,-0.0021,-0.0022,-0.0081,-0.0083,-0.0085,-0.0081,0,0,-0.009,-0.0091,0,0,0,0,0,0,0,0,0.0089,0.0086,0.0057,0.0054,0.005,0.001,0.0017,-0.001,-0.0019,0.0006,-0.0021,-0.0022,-0.0052,-0.0056,-0.0064,-0.0084,-0.0086,-0.009,-0.0091,-0.0092,-0.0093,0,0,0,0,0,0,0,0.0092,0.0088,0.006,0.0056,0.0052,0.003,0.0026,0.0011,-0.0018,0.0004,0.0001,-0.0005,-0.0054,-0.0062,-0.0066,-0.0087,-0.009,-0.0092,-0.0093,-0.0094,-0.0124,-0.0124,0,0,0,0,0,0,0.01,0.009,0.0062,0.0059,0.0068,0.0031,0.0025,0.0023,-0.0018,-0.0025,-0.0005,-0.0007,-0.0059,-0.0064,-0.0068,-0.0062,-0.0092,-0.0094,-0.0095,-0.0124,-0.0124,-0.0124,0,0,0,0,0,0,0.0102,0.0099,0.0064,0.0073,0.0067,0.0031,0.0029,0.0023,0.0012,-0.0024,-0.0032,-0.0008,-0.006,-0.0066,-0.0078,-0.0065,-0.0095,-0.0096,-0.0125,-0.0124,-0.0124,-0.0051,0,0,0,0,0,0,0.0103,0.01,0.0102,0.0074,0.0067,0.0062,0.003,0.0022,0.001,0.0006,-0.003,-0.0036,-0.0061,-0.0075,-0.008,-0.0067,-0.0098,-0.0125,-0.0124,-0.0124,-0.0053,-0.0048,-0.0043,0,0,0,0,0,0.0105,0.0118,0.0102,0.0099,0.0071,0.0063,0.0058,0.0029,0.0011,0.0015,-0.0013,-0.0035,-0.0076,-0.0076,-0.0082,-0.0069,-0.0125,-0.0125,-0.0124,-0.0056,-0.0049,-0.0043,0,0,0,0,0,0,0.0137,0.0114,0.0096,0.0102,0.0085,0.0055,0.0056,0.0034,0.0015,0.0009,-0.0028,-0.0036,-0.0044,-0.0067,-0.0066,-0.0079,-0.0106,-0.0106,-0.0052,-0.0046,-0.0041,-0.0021,-0.0099,0,0,0,0,0,0.0145,0.0146,0.0121,0.0124,0.0119,0.0087,0.0079,0.006,0.0038,0.0029,0.0002,-0.0026,-0.0045,-0.0053,-0.0075,-0.0076,-0.0106,-0.0075,-0.007,-0.0065,-0.0053,-0.0092,-0.0089,-0.0122,-0.0122,-0.0122,0,0,0.0156,0.0144,0.0144,0.013,0.0114,0.0123,0.0081,0.0075,0.0081,0.0026,0.0026,-0.0008,-0.0042,-0.0047,-0.0052,-0.0064,-0.0072,-0.0064,-0.006,-0.0051,-0.0091,-0.0088,-0.0085,-0.0122,-0.0122,-0.0122,0,0,0.019,0.0172,0.0188,0.0182,0.0164,0.0148,0.015,0.0123,0.011,0.0102,0.0064,0.004,0.0011,-0.0009,-0.0023,-0.0002,-0.0045,-0.0014,0.0034,-0.0004,-0.0001,0.0001,-0.0031,-0.0033,-0.0008,-0.0008,-0.0008,0,0.0204,0.0221,0.0191,0.0209,0.0212,0.0166,0.019,0.0174,0.0145,0.0143,0.0112,0.0065,0.0031,0.003,0.0033,0.0012,-0.0018,0.0016,0.0004,0.0005,0.0006,-0.0028,-0.003,-0.0005,-0.0005,-0.0005,-0.0006,0,0.0252,0.0265,0.0277,0.0284,0.0283,0.0296,0.0273,0.0269,0.0241,0.0219,0.0202,0.0147,0.0122,0.0102,0.0073,0.0068,0.0043,0.0014,-0.0007,0.0014,-0.0023,-0.0027,0.0,-0.0001,-0.0002,-0.0003,0,0,0.0286,0.0308,0.0311,0.0335,0.0326,0.0337,0.0348,0.035,0.0367,0.0314,0.0326,0.0271,0.0229,0.021,0.0163,0.0127,0.01,0.0079,0.0075,0.0056,0.0019,0.0,-0.0007,0.0067,0.0067,0.0067,-0.0008,0,0.0334,0.0392,0.0384,0.0438,0.0468,0.0441,0.046,0.0452,0.0432,0.043,0.036,0.0347,0.0275,0.0262,0.0214,0.0133,0.0092,0.0123,-0.0006,-0.0009,-0.0022,-0.0011,0.0014,-0.005,-0.0012,-0.0013,-0.0013,0,0.0385,0.042,0.0483,0.0528,0.0538,0.0557,0.0587,0.0602,0.0582,0.0566,0.0528,0.0466,0.0412,0.034,0.0211,0.0234,0.0136,0.0062,0.0057,0.0013,-0.0036,-0.0067,-0.006,-0.0021,-0.002,-0.0019,-0.0019,0,0.0434,0.049,0.0547,0.0562,0.0599,0.0622,0.064,0.0641,0.0677,0.0653,0.0664,0.0573,0.054,0.0404,0.0242,0.0226,0.0093,0.0051,-0.0059,-0.0062,-0.0078,-0.0081,-0.0044,-0.0044,-0.0043,-0.0043,-0.0043,0,0.0492,0.0538,0.0577,0.061,0.0686,0.0684,0.0758,0.0762,0.0786,0.0839,0.0738,0.0752,0.0553,0.0447,0.0282,0.0107,0.012,-0.0044,-0.008,-0.0052,-0.0052,-0.0057,-0.0058,-0.0046,-0.0045,-0.0045,-0.0044,0,0.0536,0.056,0.0634,0.0688,0.0711,0.0766,0.0849,0.0906,0.0911,0.0976,0.0973,0.0893,0.0757,0.0548,0.0336,0.0178,-0.0,-0.0069,-0.002,-0.0049,-0.0142,-0.0138,-0.0197,-0.0198,-0.0199,-0.02,-0.0201,0,0.0565,0.0608,0.0695,0.0751,0.0778,0.0862,0.0926,0.0967,0.1039,0.1069,0.111,0.1,0.0945,0.0627,0.0329,0.0042,0.0002,-0.0125,-0.0156,-0.0127,-0.0157,-0.0151,-0.0146,-0.0152,-0.0153,-0.0153,-0.0153,0,0.0624,0.065,0.0714,0.0828,0.0906,0.1013,0.1106,0.1186,0.1239,0.1283,0.1328,0.1282,0.0986,0.0702,0.0307,0.0115,-0.0081,-0.014,-0.0121,-0.0113,-0.0091,-0.0118,-0.0113,-0.0155,-0.0155,-0.0155,-0.0155,-0.0155,0.0666,0.0722,0.0805,0.0917,0.1015,0.1146,0.1246,0.1345,0.1462,0.1538,0.1494,0.1433,0.1103,0.0608,0.026,-0.0101,-0.0085,-0.0215,-0.0213,-0.021,-0.0187,-0.0167,-0.0242,-0.0242,-0.0242,-0.0243,-0.0243,0,0.0723,0.0788,0.089,0.1022,0.1139,0.1188,0.1357,0.1452,0.1588,0.1644,0.167,0.1362,0.1039,0.0663,0.0123,-0.0199,-0.0218,-0.0292,-0.0253,-0.0248,-0.0244,-0.0223,-0.0288,-0.0289,-0.029,-0.0291,0,0,0.0753,0.0856,0.0908,0.11,0.1202,0.1371,0.1478,0.1601,0.1683,0.1729,0.1697,0.1629,0.1162,0.0765,0.0323,0.0013,-0.0039,-0.004,0.0031,0.0135,0.0143,-0.0165,-0.0122,0,0,0,0,0]}],[{"header":{"parameterUnit":"m.s-1","parameterCategory":2,"la1":30.2991,"la2":30.254,"lo1":-89.0895,"lo2":-89.0444,"dy":0.0017,"dx":0.0017,"nx":28,"ny":28,"refTime":"2024-10-21T09:00:00:Z","depth":"4","parameterNumber":2,"parameterNumberName":"U-component_of_CURRENTS"},"data":[0,0,0,0,0,0,0,0,0,0,0,0,0,0,0,0,0,0,0,0,0,0,0,0,0,0,0,0,0,0,0,0,0,0,0,0,0,0,0,0,0,0,0,0,0,0,0,0,0,0,0,0,0,0,0,0,0,0,0.1781,0.1782,0,0.187,0.1871,0.1872,0.1941,0.1942,0.1942,0.1943,0.2028,0.2029,0.2031,0,0,0,0,0,0,0,0,0,0,0,0,0,0.1661,0.1663,0.1781,0.1782,0.1783,0.187,0.1871,0.1872,0.1941,0.1942,0.1943,0.1944,0.2027,0.2029,0.2031,0,0,0,0,0,0,0,0,0,0,0,0,0,0.1726,0.1664,0.1781,0.1829,0.1835,0.187,0.1871,0.1873,0.194,0.1942,0.1943,0.1944,0.2027,0.2029,0.2031,0.202,0,0,0.2038,0.2039,0,0,0,0,0,0,0,0,0.1723,0.1731,0.1821,0.1826,0.1832,0.1897,0.1861,0.1922,0.194,0.1898,0.1943,0.1945,0.1984,0.199,0.2001,0.2024,0.2028,0.2038,0.2039,0.204,0.2041,0,0,0,0,0,0,0,0.1718,0.1727,0.1814,0.1822,0.1829,0.1844,0.1855,0.1872,0.1931,0.1902,0.1908,0.192,0.1987,0.1999,0.2004,0.2029,0.2038,0.204,0.2041,0.2042,0.2173,0.2175,0,0,0,0,0,0,0.171,0.1723,0.1812,0.1817,0.1781,0.1846,0.1857,0.1874,0.1932,0.1942,0.1919,0.1923,0.1994,0.2001,0.2007,0.2104,0.204,0.2042,0.2044,0.2171,0.2173,0.2176,0,0,0,0,0,0,0.1707,0.1717,0.1808,0.1773,0.1786,0.1847,0.1864,0.1875,0.1927,0.1945,0.1956,0.1965,0.1996,0.2004,0.2064,0.2103,0.2043,0.2045,0.2168,0.2172,0.2175,0.2229,0,0,0,0,0,0,0.1704,0.1716,0.1742,0.1773,0.1788,0.1854,0.1864,0.1876,0.1931,0.1938,0.1987,0.1994,0.1997,0.2061,0.2066,0.2105,0.2047,0.2166,0.217,0.2174,0.2224,0.2233,0.2241,0,0,0,0,0,0.1699,0.1723,0.1743,0.1755,0.1817,0.1855,0.1865,0.1909,0.1932,0.196,0.2001,0.1995,0.209,0.2064,0.207,0.2111,0.2164,0.2169,0.2173,0.222,0.2231,0.2241,0,0,0,0,0,0,0.1686,0.1733,0.1756,0.1795,0.1835,0.1868,0.1904,0.193,0.1983,0.2003,0.2018,0.2028,0.2097,0.2098,0.2069,0.2162,0.2127,0.2133,0.2161,0.2172,0.218,0.2178,0.2049,0,0,0,0,0,0.1694,0.1729,0.177,0.1807,0.183,0.1874,0.1903,0.1934,0.1975,0.2002,0.2037,0.2077,0.2114,0.2139,0.2169,0.2215,0.2222,0.2248,0.2256,0.2263,0.2268,0.2316,0.2328,0.2191,0.2191,0.2191,0,0,0.1699,0.1732,0.1753,0.1808,0.1845,0.1881,0.1896,0.1951,0.1991,0.2001,0.2078,0.2111,0.2134,0.2193,0.2223,0.2203,0.2309,0.2269,0.2275,0.2276,0.2322,0.2335,0.2347,0.2195,0.2194,0.2194,0,0,0.1714,0.176,0.179,0.1826,0.1889,0.1914,0.1938,0.1995,0.2037,0.2102,0.2126,0.2184,0.2238,0.2265,0.2282,0.2355,0.2354,0.2372,0.2412,0.2459,0.247,0.248,0.2513,0.2525,0.2374,0.2374,0.2374,0,0.1723,0.1763,0.1805,0.1842,0.1878,0.1932,0.1969,0.2014,0.2087,0.2125,0.2138,0.2248,0.2269,0.2337,0.2367,0.2373,0.2397,0.2367,0.2469,0.2479,0.2488,0.2519,0.2532,0.2377,0.2377,0.2377,0.2377,0,0.1746,0.1794,0.1818,0.1881,0.1924,0.1969,0.2027,0.2088,0.2144,0.2185,0.2283,0.2323,0.2387,0.2407,0.2409,0.2493,0.2489,0.2474,0.2437,0.2505,0.2534,0.2546,0.2382,0.2381,0.238,0.2379,0,0,0.1721,0.1815,0.1827,0.1863,0.1951,0.1981,0.2062,0.2137,0.2198,0.2277,0.2354,0.2427,0.2465,0.2488,0.2511,0.2551,0.2638,0.2548,0.2549,0.2571,0.2746,0.2577,0.2574,0.2647,0.265,0.2652,0.2742,0,0.1731,0.1794,0.1845,0.1914,0.195,0.2028,0.2091,0.2172,0.2251,0.234,0.2406,0.2489,0.2491,0.254,0.2584,0.2632,0.2674,0.2615,0.2686,0.2688,0.2521,0.2583,0.2659,0.2751,0.2754,0.2756,0.2757,0,0.1728,0.1775,0.184,0.1932,0.1957,0.2011,0.2129,0.2197,0.2325,0.2389,0.2488,0.2547,0.2644,0.2627,0.2741,0.271,0.2737,0.2759,0.2763,0.2591,0.254,0.267,0.2779,0.2778,0.2776,0.2775,0.2773,0,0.1671,0.1767,0.182,0.1853,0.1965,0.2022,0.2094,0.222,0.2293,0.244,0.2511,0.2622,0.2703,0.2759,0.2822,0.2798,0.2929,0.2893,0.2764,0.2753,0.2854,0.2842,0.2964,0.2964,0.2964,0.2964,0.2963,0,0.164,0.1686,0.1805,0.1833,0.1907,0.2001,0.2099,0.219,0.233,0.2412,0.2542,0.2617,0.2745,0.2834,0.2859,0.2853,0.2965,0.2779,0.2766,0.2875,0.2865,0.2862,0.2849,0.2967,0.2966,0.2966,0.2965,0,0.1565,0.1645,0.1711,0.1838,0.1883,0.1942,0.2097,0.216,0.2311,0.2428,0.2483,0.2654,0.2757,0.2858,0.2959,0.2888,0.2904,0.2873,0.3001,0.2992,0.2685,0.2674,0.272,0.2715,0.2711,0.2707,0.2704,0,0.1527,0.1558,0.1699,0.1743,0.1808,0.1912,0.1977,0.2136,0.2204,0.2421,0.2457,0.2629,0.2719,0.2734,0.284,0.2878,0.2846,0.2832,0.2732,0.2678,0.2662,0.2658,0.2653,0.2697,0.2696,0.2695,0.2694,0,0.1453,0.1522,0.1578,0.1672,0.175,0.182,0.193,0.1962,0.2138,0.2297,0.2377,0.2443,0.2554,0.2625,0.2685,0.2702,0.2823,0.2785,0.2792,0.2698,0.265,0.2637,0.2638,0.2678,0.2681,0.2682,0.2683,0,0.1402,0.1423,0.1511,0.1578,0.1666,0.1696,0.1769,0.1845,0.1933,0.2162,0.2184,0.2363,0.2524,0.2536,0.2588,0.2597,0.2545,0.245,0.2474,0.2492,0.2374,0.2277,0.2186,0,0,0,0,0,0.134,0.135,0.1407,0.1466,0.1545,0.1597,0.1719,0.1794,0.196,0.196,0.2067,0.2157,0.2237,0.2334,0.2297,0.2483,0.2553,0.2427,0.2454,0.2594,0.2611,0.2493,0,0,0,0,0,0,0.1297,0.1344,0.1365,0.1355,0.1372,0.1441,0.1508,0.1623,0.1635,0.1817,0.1877,0.2022,0.2138,0.2238,0.2255,0.2283,0.2254,0.2543,0.2537,0.2583,0.26,0.2614,0.2499,0,0,0,0,0]},{"header":{"parameterUnit":"m.s-1","parameterCategory":2,"la1":30.2991,"la2":30.254,"lo1":-89.0895,"lo2":-89.0444,"dy":0.0017,"dx":0.0017,"nx":28,"ny":28,"refTime":"2024-10-21T09:00:00:Z","depth":"4","parameterNumber":3,"parameterNumberName":"V-component_of_CURRENTS"},"data":[0,0,0,0,0,0,0,0,0,0,0,0,0,0,0,0,0,0,0,0,0,0,0,0,0,0,0,0,0,0,0,0,0,0,0,0,0,0,0,0,0,0,0,0,0,0,0,0,0,0,0,0,0,0,0,0,0,0,0.0134,0.0133,0,0.0098,0.0097,0.0097,0.0067,0.0066,0.0066,0.0066,0.0021,0.002,0.0019,0,0,0,0,0,0,0,0,0,0,0,0,0,0.0158,0.0158,0.0134,0.0133,0.0133,0.0098,0.0097,0.0097,0.0067,0.0066,0.0066,0.0066,0.0021,0.002,0.0019,0,0,0,0,0,0,0,0,0,0,0,0,0,0.0138,0.0158,0.0134,0.0114,0.0111,0.0098,0.0097,0.0097,0.0067,0.0066,0.0066,0.0066,0.0022,0.002,0.0019,0.0021,0,0,0.0015,0.0014,0,0,0,0,0,0,0,0,0.0139,0.0137,0.0117,0.0115,0.0113,0.0086,0.0089,0.0071,0.0067,0.0084,0.0066,0.0065,0.0042,0.0039,0.0034,0.0019,0.0017,0.0015,0.0014,0.0014,0.0013,0,0,0,0,0,0,0,0.014,0.0138,0.012,0.0117,0.0114,0.01,0.0097,0.0086,0.0066,0.0083,0.008,0.0076,0.0041,0.0035,0.0033,0.0016,0.0015,0.0014,0.0013,0.0012,-0.0012,-0.0012,0,0,0,0,0,0,0.0146,0.0139,0.0121,0.0119,0.0124,0.01,0.0096,0.0095,0.0067,0.0062,0.0077,0.0075,0.0038,0.0034,0.0031,0.0039,0.0014,0.0012,0.0012,-0.0012,-0.0012,-0.0012,0,0,0,0,0,0,0.0147,0.0145,0.0122,0.0128,0.0124,0.01,0.0099,0.0095,0.009,0.0062,0.0057,0.0076,0.0037,0.0033,0.0025,0.0037,0.0012,0.0011,-0.0013,-0.0012,-0.0012,0.005,0,0,0,0,0,0,0.0148,0.0145,0.0149,0.0128,0.0124,0.0121,0.0099,0.0094,0.0088,0.0085,0.006,0.0055,0.0036,0.0027,0.0024,0.0034,0.001,-0.0013,-0.0013,-0.0012,0.0048,0.0052,0.0056,0,0,0,0,0,0.0149,0.0158,0.0149,0.0147,0.0129,0.0122,0.0119,0.01,0.0088,0.0092,0.0073,0.0056,0.0026,0.0027,0.0023,0.0033,-0.0013,-0.0013,-0.0012,0.0046,0.0051,0.0056,0,0,0,0,0,0,0.017,0.0156,0.0145,0.0149,0.0139,0.0117,0.0119,0.0105,0.0093,0.009,0.0062,0.0057,0.0052,0.0033,0.0034,0.0024,0.0002,0.0001,0.0048,0.0052,0.0057,0.0072,0.0008,0,0,0,0,0,0.0177,0.018,0.0162,0.0166,0.0163,0.0141,0.0136,0.0124,0.0109,0.0103,0.0085,0.0064,0.005,0.0044,0.0027,0.0028,-0.0002,0.0028,0.0033,0.0036,0.0045,0.0007,0.0009,-0.0011,-0.0011,-0.0011,0,0,0.0185,0.0178,0.0178,0.017,0.016,0.0168,0.0138,0.0135,0.0141,0.0101,0.0105,0.008,0.0053,0.0051,0.0047,0.0037,0.0026,0.0037,0.004,0.0047,0.0008,0.001,0.0012,-0.0011,-0.0011,-0.0011,0,0,0.0208,0.0198,0.021,0.0208,0.0198,0.0187,0.0189,0.0171,0.0164,0.0162,0.0134,0.0117,0.0097,0.0081,0.007,0.0087,0.0048,0.0078,0.0116,0.008,0.0081,0.0082,0.0046,0.0044,0.0082,0.0082,0.0082,0,0.0218,0.0232,0.0213,0.0227,0.0232,0.0201,0.022,0.021,0.0192,0.0192,0.017,0.0138,0.0112,0.0112,0.0115,0.0098,0.007,0.0102,0.0086,0.0087,0.0087,0.0049,0.0046,0.0085,0.0085,0.0084,0.0084,0,0.0251,0.0265,0.0274,0.0283,0.0285,0.0296,0.0282,0.0283,0.0266,0.0252,0.0242,0.0201,0.0183,0.0168,0.0148,0.014,0.0117,0.0096,0.0078,0.0093,0.0052,0.0047,0.0089,0.0088,0.0087,0.0087,0,0,0.0269,0.0294,0.0297,0.0319,0.0318,0.0327,0.0341,0.0346,0.0361,0.0325,0.0335,0.0297,0.0267,0.0252,0.0217,0.0185,0.0155,0.0146,0.0143,0.0118,0.0074,0.0054,0.0046,0.0131,0.013,0.013,0.0045,0,0.0303,0.0349,0.0349,0.0395,0.0419,0.0407,0.0427,0.0425,0.0411,0.0411,0.036,0.0353,0.0302,0.0294,0.0253,0.0182,0.0145,0.018,0.0056,0.0053,0.0039,0.0041,0.0128,0.0041,0.004,0.0039,0.0038,0,0.0336,0.0366,0.0419,0.0464,0.0473,0.0495,0.0525,0.054,0.0528,0.0515,0.0488,0.0443,0.0398,0.0347,0.0232,0.0256,0.0174,0.011,0.0105,0.0063,0.0024,0.0021,0.0029,0.003,0.003,0.0031,0.0032,0,0.0364,0.0416,0.0465,0.0479,0.0519,0.0545,0.0567,0.0573,0.06,0.0583,0.0587,0.0517,0.0486,0.0376,0.024,0.0236,0.0102,0.0078,-0.0019,-0.0021,-0.0005,-0.0006,-0.0006,-0.0006,-0.0005,-0.0005,-0.0005,0,0.04,0.044,0.0486,0.0514,0.0581,0.0591,0.0654,0.0662,0.0682,0.0714,0.0646,0.0639,0.0491,0.0394,0.0263,0.0108,0.0116,-0.001,-0.0043,0.0022,0.0026,-0.0009,-0.0008,-0.0008,-0.0008,-0.0007,-0.0006,0,0.042,0.0449,0.0513,0.0571,0.0597,0.0645,0.0723,0.0763,0.0773,0.081,0.0809,0.0732,0.06,0.0441,0.0257,0.0145,-0.0005,-0.0064,0.0022,-0.0005,-0.0111,-0.0106,-0.0175,-0.0177,-0.0178,-0.0179,-0.018,0,0.0433,0.0467,0.0555,0.0601,0.0632,0.0708,0.0763,0.0806,0.0849,0.086,0.0875,0.0772,0.0693,0.0429,0.025,0.0001,-0.0039,-0.0116,-0.0118,-0.0103,-0.0128,-0.0121,-0.0115,-0.0182,-0.0182,-0.0182,-0.0183,0,0.0455,0.0487,0.0539,0.0636,0.0706,0.0792,0.0868,0.0908,0.0951,0.0962,0.0927,0.0792,0.0641,0.0428,0.0234,0.0054,-0.0064,-0.0129,-0.0128,-0.0131,-0.0111,-0.0134,-0.0126,-0.0187,-0.0186,-0.0186,-0.0185,0,0.0467,0.0507,0.0577,0.0665,0.0755,0.084,0.0888,0.0934,0.0979,0.0987,0.0969,0.081,0.0722,0.0454,0.0276,0.0096,0.0044,-0.0015,-0.0021,-0.0019,0.0045,0.0094,0.0058,0,0,0,0,0,0.0475,0.0522,0.06,0.0696,0.0786,0.0847,0.094,0.0979,0.1019,0.1001,0.0991,0.0848,0.0586,0.0476,0.0292,0.0235,0.0002,0.0011,-0.0071,-0.0209,-0.0204,-0.0158,0,0,0,0,0,0,0.0478,0.0548,0.0593,0.0703,0.0775,0.0881,0.0946,0.098,0.0973,0.0982,0.0848,0.0794,0.0539,0.0689,0.0286,0.0232,0.0152,-0.0105,-0.0109,-0.0212,-0.0207,-0.0204,-0.0154,0,0,0,0,0]}]]